Location: Munkebjergskolens Observatorium
(55.3864°N, 10.3987°E)
Time: 22:42:03
(UTC+01:00)

Envisat - Pass Details

Date: 01 December 2022
Orbit: 763 x 765 km, 98.2° (Epoch: 01 February)

Event Time Altitude Azimuth Distance (km) Brightness Sun altitude
Rises 06:31:17 0° 10° (N) 3,249 6.2 -14.5°
Reaches altitude 10° 06:34:03 10° 355° (N) 2,318 5.3 -14.1°
Maximum altitude 06:37:50 21° 307° (NW) 1,661 4.2 -13.6°
Enters shadow 06:39:03 20° 287° (WNW) 1,740 4.2 -13.5°
